Weather History for K1H2 - August, 2013

Change the Weather History Date:

Thursday, August 1, 2013

  Actual Average (KMTO) Record (KMTO)
Temperature  
Mean Temperature 77 °F 75 °F  
Max Temperature 87 °F 86 °F 97 °F (1964)
Min Temperature 67 °F 65 °F 52 °F (1949)
Degree Days  
Heating Degree Days 0 0  
Month to date heating degree days 0  
Since 1 June heating degree days 18  
Since 1 July heating degree days 1  
Cooling Degree Days 12 10  
Month to date cooling degree days 10  
Year to date cooling degree days 651  
Since 1 June cooling degree days 563  
Growing Degree Days 27 (Base 50)    
Moisture  
Dew Point 65 °F    
Average Humidity 71    
Maximum Humidity 93    
Minimum Humidity 39    
Precipitation  
Precipitation 0.00 in 0.09 in 1.04 in (1979)
Month to date precipitation 0.09  
Year to date precipitation 22.93  
Sea Level Pressure  
Sea Level Pressure 30.03 in    
Wind  
Wind Speed 3 mph (WNW)    
Max Wind Speed 10 mph    
Max Gust Speed -    
Visibility 8 miles    
Events      
T = Trace of Precipitation, MM = Missing Value Source: NWS Daily Summary

Daily Weather History Graph

Daily Weather History Graph

Search for Another Location

Airport or City:

Trip Planner

Search our weather history database for the weather conditions in past years. The results will help you decide how hot, cold, wet, or windy it might be!

Date:

Astronomy

Aug. 01, 2013 Rise Set
Actual Time 5:54 AM CDT 8:05 PM CDT
Civil Twilight 5:25 AM CDT 8:35 PM CDT
Nautical Twilight 4:48 AM CDT 9:11 PM CDT
Astronomical Twilight 4:08 AM CDT 9:51 PM CDT
Moon 1:31 AM CDT (8/1) 4:13 PM CDT (8/1)
Length of Visible Light 15h 09m
Length of Day
14h 10m
Waning Crescent, 23% of the Moon is Illuminated
Aug 1
Waning Crescent
Aug 6
New
Aug 14
First Quarter
Aug 20
Full
Aug 28
Last Quarter

Hourly Weather History & Observations

Time (CDT) Temp. Heat Index Dew Point Humidity Pressure Visibility Wind Dir Wind Speed Gust Speed Precip Events Conditions
12:15 AM 70.5 °F - 67.8 °F 91% 30.03 in 7.0 mi NW 3.5 mph - N/A   Clear
12:35 AM 70.3 °F - 67.5 °F 91% 30.02 in 7.0 mi Calm Calm - N/A   Clear
12:55 AM 70.0 °F - 67.3 °F 91% 30.02 in 7.0 mi Calm Calm - N/A   Clear
1:15 AM 69.4 °F - 66.6 °F 91% 30.02 in 5.0 mi Calm Calm - N/A   Clear
1:35 AM 68.4 °F - 65.7 °F 91% 30.02 in 3.0 mi Calm Calm - N/A   Clear
1:55 AM 68.9 °F - 66.4 °F 92% 30.02 in 3.0 mi Calm Calm - N/A   Clear
2:15 AM 68.0 °F - 65.5 °F 92% 30.02 in 4.0 mi Calm Calm - N/A   Clear
2:35 AM 68.0 °F - 65.5 °F 92% 30.02 in 4.0 mi Calm Calm - N/A   Clear
2:55 AM 68.0 °F - 65.5 °F 92% 30.02 in 2.0 mi West 3.5 mph - N/A   Clear
3:15 AM 68.2 °F - 65.7 °F 92% 30.02 in 3.0 mi West 3.5 mph - N/A   Scattered Clouds
3:35 AM 69.1 °F - 66.7 °F 92% 30.02 in 4.0 mi West 3.5 mph - N/A   Mostly Cloudy
3:55 AM 68.9 °F - 66.4 °F 92% 30.01 in 3.0 mi WNW 3.5 mph - N/A   Scattered Clouds
4:15 AM 68.4 °F - 66.2 °F 93% 30.02 in 4.0 mi West 3.5 mph - N/A   Scattered Clouds
4:35 AM 68.4 °F - 66.0 °F 92% 30.02 in 4.0 mi Calm Calm - N/A   Scattered Clouds
4:55 AM 68.4 °F - 66.0 °F 92% 30.02 in 4.0 mi Calm Calm - N/A   Clear
5:15 AM 67.5 °F - 64.9 °F 92% 30.02 in 4.0 mi WNW 3.5 mph - N/A   Clear
5:35 AM 68.0 °F - 65.5 °F 92% 30.03 in 4.0 mi Calm Calm - N/A   Clear
5:55 AM 67.5 °F - 64.9 °F 92% 30.03 in 4.0 mi West 3.5 mph - N/A   Clear
6:15 AM 67.8 °F - 65.3 °F 92% 30.04 in 4.0 mi West 3.5 mph - N/A   Clear
6:35 AM 68.4 °F - 65.8 °F 92% 30.04 in 4.0 mi Calm Calm - N/A   Clear
6:55 AM 69.6 °F - 67.1 °F 92% 30.04 in 5.0 mi Calm Calm - N/A   Clear
7:15 AM 71.6 °F - 68.5 °F 90% 30.04 in 7.0 mi WNW 5.8 mph - N/A   Clear
7:35 AM 72.9 °F - 68.2 °F 85% 30.05 in 10.0 mi NW 8.1 mph - N/A   Clear
7:55 AM 73.6 °F - 68.7 °F 85% 30.05 in 10.0 mi NW 9.2 mph - N/A   Clear
8:15 AM 74.5 °F - 69.4 °F 84% 30.05 in 10.0 mi NW 6.9 mph - N/A   Clear
8:35 AM 76.1 °F - 69.6 °F 80% 30.05 in 10.0 mi NW 4.6 mph - N/A   Clear
8:55 AM 77.2 °F - 69.8 °F 78% 30.06 in 10.0 mi WNW 4.6 mph - N/A   Clear
9:15 AM 78.6 °F - 70.2 °F 75% 30.07 in 10.0 mi NW 5.8 mph - N/A   Clear
9:35 AM 79.7 °F - 69.1 °F 70% 30.06 in 10.0 mi NW 5.8 mph - N/A   Clear
9:55 AM 80.8 °F 83.8 °F 69.1 °F 67% 30.06 in 10.0 mi NW 6.9 mph - N/A   Clear
10:15 AM 81.5 °F 84.4 °F 68.2 °F 64% 30.07 in 10.0 mi NW 6.9 mph - N/A   Scattered Clouds
10:35 AM 82.2 °F 84.7 °F 67.1 °F 60% 30.07 in 10.0 mi North 8.1 mph - N/A   Scattered Clouds
10:55 AM 82.9 °F 84.8 °F 65.5 °F 55% 30.07 in 10.0 mi NNW 10.4 mph - N/A   Scattered Clouds
11:15 AM 83.5 °F 84.3 °F 62.6 °F 49% 30.07 in 10.0 mi North 9.2 mph - N/A   Scattered Clouds
11:35 AM 84.2 °F 85.0 °F 62.8 °F 48% 30.07 in 10.0 mi North 6.9 mph - N/A   Scattered Clouds
11:55 AM 84.4 °F 85.2 °F 63.0 °F 48% 30.07 in 10.0 mi NW 6.9 mph - N/A   Clear
12:15 PM 84.7 °F 85.0 °F 61.3 °F 45% 30.06 in 10.0 mi North 5.8 mph - N/A   Clear
12:35 PM 85.3 °F 84.8 °F 59.4 °F 41% 30.06 in 10.0 mi NW 8.1 mph - N/A   Scattered Clouds
12:55 PM 84.2 °F 84.8 °F 61.7 °F 47% 30.06 in 10.0 mi WNW 4.6 mph - N/A   Scattered Clouds
1:15 PM 86.0 °F 85.7 °F 59.7 °F 41% 30.06 in 10.0 mi West 5.8 mph - N/A   Scattered Clouds
1:35 PM 86.4 °F 85.6 °F 58.8 °F 39% 30.05 in 10.0 mi WSW 6.9 mph - N/A   Scattered Clouds
1:55 PM 85.8 °F 85.4 °F 59.5 °F 41% 30.05 in 10.0 mi WNW 8.1 mph - N/A   Clear
2:15 PM 87.3 °F 87.0 °F 60.1 °F 40% 30.05 in 10.0 mi NW 5.8 mph - N/A   Scattered Clouds
2:35 PM 87.1 °F 87.0 °F 60.8 °F 41% 30.04 in 10.0 mi WNW 5.8 mph - N/A   Mostly Cloudy
2:55 PM 84.2 °F 84.8 °F 61.9 °F 47% 30.04 in 10.0 mi NW 5.8 mph - N/A   Scattered Clouds
3:15 PM 86.4 °F 86.3 °F 60.8 °F 42% 30.04 in 10.0 mi NW 6.9 mph - N/A   Clear
3:35 PM 86.4 °F 86.3 °F 60.8 °F 42% 30.03 in 10.0 mi WNW 5.8 mph - N/A   Clear
3:55 PM 86.5 °F 87.0 °F 62.2 °F 44% 30.04 in 10.0 mi WNW 8.1 mph - N/A   Clear
4:15 PM 85.6 °F 85.9 °F 61.5 °F 44% 30.03 in 10.0 mi WNW 5.8 mph - N/A   Scattered Clouds
4:35 PM 86.2 °F 86.6 °F 61.9 °F 44% 30.02 in 10.0 mi WNW 6.9 mph - N/A   Clear
4:55 PM 86.2 °F 86.8 °F 62.6 °F 45% 30.02 in 10.0 mi West 6.9 mph - N/A   Clear
5:15 PM 85.6 °F 86.3 °F 62.8 °F 46% 30.02 in 10.0 mi WNW 6.9 mph - N/A   Clear
5:35 PM 85.5 °F 86.3 °F 63.0 °F 47% 30.01 in 10.0 mi WNW 6.9 mph - N/A   Clear
5:55 PM 85.1 °F 85.7 °F 62.4 °F 46% 30.01 in 10.0 mi NW 6.9 mph - N/A   Scattered Clouds
6:15 PM 85.1 °F 85.4 °F 61.5 °F 45% 30.00 in 10.0 mi West 6.9 mph - N/A   Clear
6:35 PM 84.2 °F 85.6 °F 64.0 °F 51% 30.00 in 10.0 mi WNW 8.1 mph - N/A   Clear
6:55 PM 82.8 °F 84.3 °F 64.6 °F 54% 30.00 in 10.0 mi WNW 5.8 mph - N/A   Clear
7:15 PM 81.5 °F 83.7 °F 66.4 °F 60% 30.01 in 10.0 mi WNW 3.5 mph - N/A   Clear
7:35 PM 80.2 °F 82.6 °F 67.1 °F 64% 30.00 in 10.0 mi West 3.5 mph - N/A   Clear
7:55 PM 77.5 °F - 68.4 °F 73% 30.01 in 10.0 mi Calm Calm - N/A   Clear
8:15 PM 75.7 °F - 67.5 °F 75% 30.01 in 10.0 mi Calm Calm - N/A   Clear
8:35 PM 73.9 °F - 68.4 °F 83% 30.00 in 10.0 mi Calm Calm - N/A   Clear
8:55 PM 73.2 °F - 68.9 °F 86% 30.00 in 10.0 mi Calm Calm - N/A   Clear
9:15 PM 72.5 °F - 68.4 °F 87% 30.01 in 10.0 mi Calm Calm - N/A   Clear
9:35 PM 72.0 °F - 68.2 °F 88% 30.01 in 10.0 mi Calm Calm - N/A   Clear
9:55 PM 71.2 °F - 67.5 °F 88% 30.01 in 10.0 mi Calm Calm - N/A   Clear
10:15 PM 70.3 °F - 66.9 °F 89% 30.01 in 10.0 mi Calm Calm - N/A   Clear
10:35 PM 70.7 °F - 67.5 °F 89% 30.01 in 10.0 mi Calm Calm - N/A   Clear
10:55 PM 70.0 °F - 67.1 °F 91% 30.02 in 10.0 mi Calm Calm - N/A   Clear
11:15 PM 69.8 °F - 66.7 °F 90% 30.02 in 10.0 mi Calm Calm - N/A   Clear
11:35 PM 69.3 °F - 66.6 °F 91% 30.01 in 1.5 mi Calm Calm - N/A   Mist
11:55 PM 68.9 °F - 66.4 °F 92% 30.01 in 10.0 mi Calm Calm - N/A   Clear